Wind_Speed
70 69 68 68 67 67 67 66 65 65 66 66 65 64 62 60 59 58 57 57 56 54 51 49 48 48 48 48 48 48 49 50 50 50 49 49 49 50 51 50 50 48 47 47 46 45 45 44 43 42 42 42 42 43 43 44 45 45 45 45 46 48 49 50 50 50 51 51 52 53 54 55 56 57 58 59 60 61 61 62 62 63 63 63 62 61
69 69 69 68 68 67 66 66 65 64 64 65 64 62 59 58 57 57 56 56 55 53 51 48 48 47 47 47 47 48 48 49 49 49 49 48 48 49 51 51 50 49 48 47 46 45 45 44 43 42 42 42 42 43 44 44 44 45 45 45 46 47 48 49 50 50 51 52 53 54 55 56 56 57 58 60 60 61 62 62 63 63 63 62 61 61
69 69 69 68 67 66 65 64 63 63 62 62 61 59 56 56 56 56 55 55 54 52 50 48 47 47 48 47 47 47 48 48 49 49 48 47 47 49 51 51 50 49 47 47 46 44 43 43 42 42 42 42 43 43 44 44 44 45 45 45 46 47 48 49 49 50 51 52 53 54 55 56 57 58 59 60 61 62 62 63 63 63 63 62 61 61
67 67 68 67 66 64 63 62 61 61 60 59 58 56 55 54 54 55 55 55 54 52 49 47 46 46 47 47 47 47 48 48 49 49 48 47 47 48 49 50 49 48 47 46 44 43 42 42 42 42 42 43 43 43 44 44 44 44 45 45 46 47 48 49 50 51 52 53 54 55 56 57 57 59 60 61 61 62 63 63 63 63 62 61 61 61
65 65 65 65 64 63 62 61 61 60 59 58 57 56 55 54 54 54 54 54 54 52 50 47 46 46 45 45 46 46 47 48 48 48 47 46 46 47 48 48 48 47 46 45 45 44 43 42 42 42 42 43 43 43 43 44 44 44 45 45 46 47 48 49 50 51 52 53 54 55 56 57 58 59 60 61 62 62 63 63 63 63 62 61 61 61
66 65 64 64 64 63 62 61 61 61 60 59 58 56 55 53 53 53 54 54 53 52 50 49 47 46 46 45 45 46 47 48 48 48 47 47 47 47 47 48 48 47 47 46 45 44 44 43 43 42 42 42 43 43 44 44 44 45 45 45 46 48 48 49 50 52 53 54 55 56 57 58 59 60 61 61 62 63 63 63 63 62 62 61 61 61
66 66 64 64 64 64 63 62 61 61 60 59 58 56 54 53 52 53 54 54 53 53 52 51 50 49 48 47 47 46 47 48 48 48 48 48 48 48 48 48 48 48 48 47 46 45 44 43 43 43 42 42 43 43 44 44 45 45 45 46 47 48 49 50 51 52 54 55 56 57 57 58 59 60 61 62 62 63 63 63 63 62 61 61 61 61
65 65 64 64 64 63 63 62 61 60 59 58 57 55 53 52 51 52 52 53 53 54 54 53 53 52 51 49 48 48 48 48 48 49 49 49 48 48 48 48 49 49 49 48 46 45 44 43 43 43 42 42 43 44 44 45 45 45 45 46 48 49 50 51 52 53 55 56 57 57 58 59 59 60 61 62 62 63 63 63 62 62 61 61 61 61
62 63 63 63 63 62 62 61 60 58 57 56 56 55 53 51 50 50 51 52 53 53 54 55 55 54 53 51 50 49 48 48 49 49 50 50 49 48 47 48 49 50 50 49 47 45 44 44 43 42 42 42 43 44 44 45 44 44 45 47 49 50 51 52 53 55 56 57 57 58 58 59 60 60 61 62 62 63 63 62 62 62 61 61 61 61
62 61 62 62 62 61 60 59 58 57 55 55 55 54 52 51 50 49 50 51 52 53 54 55 55 54 53 52 50 49 49 49 49 50 50 49 48 48 47 48 49 51 51 50 48 46 45 44 43 42 42 43 43 44 44 44 44 44 46 48 49 51 52 53 55 56 57 58 58 58 59 59 60 61 61 62 62 62 63 62 62 61 61 61 61 60
63 61 61 61 60 59 58 57 56 55 55 55 54 54 52 50 49 50 52 53 53 53 54 54 54 53 52 51 50 48 48 48 49 49 49 48 48 47 47 47 49 50 51 51 49 47 45 43 42 42 42 43 43 44 44 44 44 44 46 49 50 52 53 55 56 57 58 58 58 58 59 59 60 60 61 62 62 62 62 62 62 61 61 61 61 60
63 62 60 59 58 57 57 56 55 55 54 54 54 53 52 50 50 51 53 54 54 54 53 53 52 51 50 49 48 47 47 47 48 48 48 48 47 47 46 46 48 50 52 51 50 47 45 42 41 42 42 43 44 44 44 43 44 45 47 49 51 53 54 56 57 58 58 58 58 58 59 59 60 60 61 61 62 62 62 62 61 61 61 61 60 60
65 63 60 58 57 56 55 56 55 54 54 54 53 53 51 50 50 52 53 54 53 53 52 51 49 47 46 46 46 46 47 48 48 48 48 48 47 46 46 46 47 50 52 52 50 47 44 42 42 42 43 44 44 43 43 43 44 46 49 51 52 54 55 57 58 58 58 58 58 58 58 59 59 60 61 61 62 62 62 61 61 61 61 60 60 59
65 64 61 59 57 55 54 55 55 54 54 54 53 53 52 51 51 52 53 53 52 51 50 48 47 45 44 44 46 47 48 49 49 48 48 47 47 46 45 45 47 50 52 52 49 47 45 43 43 43 44 44 43 43 43 43 45 47 50 52 54 55 56 57 58 58 58 58 58 58 58 59 59 60 61 61 62 62 61 61 61 61 60 60 59 59
65 63 61 59 57 55 53 53 54 54 54 54 54 53 53 52 51 51 51 51 50 49 47 46 44 43 43 44 46 48 49 49 49 48 47 46 45 45 44 45 47 51 53 52 50 47 46 45 44 44 44 43 43 43 43 44 46 49 51 53 54 56 57 58 58 58 58 57 58 58 58 59 59 60 61 62 62 61 61 61 60 60 60 59 59 58
64 62 60 59 57 54 53 51 52 52 53 54 55 54 54 53 51 51 50 49 48 47 46 44 44 44 44 45 47 48 49 49 48 47 46 45 45 44 44 45 48 51 53 52 49 47 46 45 45 44 44 43 43 43 44 45 48 50 53 54 55 56 57 58 58 58 57 57 58 58 58 59 59 60 61 61 61 61 61 60 60 60 59 59 58 58
64 61 59 58 56 54 52 50 50 51 53 54 55 55 55 53 52 51 50 48 47 46 45 44 44 45 46 47 47 48 49 49 48 47 45 45 44 44 44 45 48 50 52 51 49 47 46 45 44 44 43 43 43 43 45 47 49 52 53 55 56 57 57 58 57 57 57 57 58 58 58 59 60 61 61 61 61 60 60 60 60 59 58 58 58 58
62 60 58 56 55 53 51 50 50 50 52 54 55 55 55 54 52 51 50 48 47 46 46 45 45 45 46 47 47 47 48 48 47 46 45 45 45 44 44 44 46 48 49 49 48 47 46 45 44 44 43 43 43 44 46 48 50 52 53 55 56 57 57 57 57 57 57 57 58 58 58 59 60 61 61 61 60 60 60 59 59 58 58 57 58 58
61 58 56 54 53 52 51 50 49 50 51 52 53 54 54 54 53 51 50 49 48 48 47 46 45 45 45 46 46 46 46 46 46 46 46 45 45 44 43 43 45 46 46 46 46 47 46 46 45 45 44 44 44 45 47 49 50 52 53 54 55 56 57 57 57 57 57 57 58 58 59 60 60 61 61 60 60 59 59 59 58 58 57 57 57 58
59 56 54 53 52 51 51 50 49 49 50 50 51 52 53 53 53 51 51 50 50 49 48 48 46 45 45 45 45 46 45 45 45 45 45 46 45 44 43 44 44 45 45 45 45 46 47 47 47 46 45 44 45 46 47 48 49 51 52 54 55 56 57 57 57 57 57 57 58 58 59 60 61 61 60 59 59 59 58 58 57 57 57 57 58 58
57 54 53 51 51 51 51 50 50 49 49 49 50 52 53 53 52 51 51 51 51 50 49 48 47 46 45 45 46 46 45 44 44 45 46 46 46 45 44 45 45 45 45 44 44 45 47 47 47 46 45 45 45 46 46 47 48 50 51 53 55 56 56 57 57 57 57 57 58 59 60 60 60 60 59 59 58 58 58 57 57 56 57 57 57 58
55 53 52 50 50 51 51 51 50 49 49 49 50 52 52 52 51 51 51 51 51 50 50 49 47 46 46 46 46 46 45 44 44 45 46 47 47 45 45 46 47 47 46 44 44 44 46 46 46 46 45 45 45 46 46 47 48 50 51 53 54 56 56 57 57 57 57 58 58 59 60 60 60 59 58 58 58 57 57 56 56 56 57 57 57 57
54 53 52 51 51 52 52 52 51 49 48 47 48 49 49 49 49 50 50 50 50 49 49 48 47 46 46 46 47 46 45 43 44 45 47 47 46 45 44 45 47 48 46 44 43 44 44 44 45 44 45 45 45 46 47 48 49 50 52 53 55 56 56 56 56 57 57 58 58 59 60 60 59 58 58 57 57 56 56 56 56 56 56 57 57 57
53 52 52 52 52 53 53 52 51 48 46 45 45 46 47 48 48 49 49 48 48 47 46 45 45 45 45 47 47 46 44 43 43 45 46 46 45 43 42 44 46 46 46 44 43 43 43 43 44 44 45 46 47 47 48 49 50 51 52 54 55 56 57 56 56 57 57 58 59 59 59 59 58 57 57 56 56 55 55 55 55 56 56 56 56 56
52 52 52 52 52 52 52 51 49 47 44 43 44 46 47 48 48 48 48 47 46 45 44 43 44 45 46 47 46 45 43 42 43 44 45 44 43 41 41 42 44 45 45 44 43 42 43 43 44 46 47 47 48 49 50 51 51 52 53 55 56 57 57 56 56 57 58 58 59 59 59 58 57 56 56 55 55 55 55 55 55 55 55 55 55 55
51 51 52 52 51 51 50 49 47 45 44 44 45 46 48 48 48 48 48 46 44 43 43 43 45 46 47 46 45 43 42 42 43 44 44 43 41 40 40 41 43 44 43 43 42 42 43 45 46 47 48 49 50 51 52 52 52 53 54 56 57 57 56 56 56 57 58 58 59 58 58 57 56 56 55 55 54 54 54 54 55 55 54 54 54 53
51 51 51 51 50 49 48 47 45 44 44 45 46 46 47 48 48 48 47 45 43 43 43 45 46 46 46 44 43 42 41 42 43 43 43 42 41 40 40 41 41 42 42 42 42 42 43 45 47 48 49 49 50 51 52 52 52 53 55 56 57 56 56 56 56 57 58 58 58 57 56 56 55 54 54 54 54 54 54 54 54 54 53 53 53 52
50 50 50 49 48 47 46 45 44 44 44 45 46 46 46 47 47 46 45 43 42 43 44 45 46 46 45 43 42 42 42 42 43 43 43 42 42 41 40 40 41 41 41 41 41 42 43 45 47 48 48 49 50 51 51 52 53 54 55 56 56 56 56 56 57 57 58 58 57 56 55 54 54 54 53 53 53 53 53 53 53 53 52 52 51 51
50 50 49 48 46 45 44 43 43 43 44 45 45 45 45 45 45 45 44 42 42 43 44 45 45 45 44 42 42 42 42 43 43 44 43 43 43 42 41 41 41 40 40 40 40 41 43 45 46 47 48 48 49 50 50 51 53 54 55 55 55 55 55 56 57 57 57 56 55 54 54 53 53 53 53 52 52 52 52 52 52 51 51 50 50 49
49 48 47 46 44 43 42 42 42 43 44 45 45 45 45 45 44 44 43 42 42 42 43 44 44 43 42 41 41 41 42 42 42 43 43 43 43 43 42 43 42 41 40 40 40 41 42 44 45 46 46 47 48 49 50 51 53 53 54 54 54 55 55 56 56 56 56 55 54 53 52 52 52 52 52 52 52 51 51 51 50 50 49 49 48 48
48 47 45 44 42 41 41 41 42 43 44 45 45 45 44 44 43 42 42 41 41 42 42 42 41 40 39 39 39 39 39 39 40 40 41 42 43 43 44 44 43 41 41 40 40 40 42 43 44 45 45 46 47 48 50 51 52 52 53 53 54 55 55 56 55 55 54 53 52 52 51 51 51 51 51 51 50 50 50 49 49 48 48 47 47 46
46 45 43 42 41 40 41 42 43 43 44 44 44 44 43 43 42 41 41 40 40 40 40 39 38 38 37 36 36 36 35 36 37 38 40 42 43 44 44 43 42 41 40 40 40 40 41 42 43 44 45 46 47 48 49 50 51 52 52 53 54 54 54 54 54 53 52 52 51 50 50 50 50 50 50 50 49 49 49 48 48 47 47 46 46 45
44 43 42 41 40 40 40 41 42 43 43 43 43 43 42 42 41 40 40 40 39 38 37 37 36 36 35 34 33 33 33 34 36 38 40 42 42 43 42 41 40 39 39 39 40 40 41 42 43 44 45 46 47 48 49 50 51 51 52 53 53 53 53 53 52 51 51 50 50 50 49 49 49 49 49 48 48 48 47 47 47 46 46 45 44 43
42 41 40 40 39 39 39 40 41 41 42 42 42 42 41 41 40 40 40 39 37 36 35 34 34 33 32 31 31 32 33 35 36 38 39 39 39 38 38 37 37 37 38 38 39 40 41 42 43 44 45 46 47 47 48 49 50 51 52 52 52 52 52 51 51 50 50 49 49 49 49 49 49 48 48 47 47 46 46 46 46 45 44 43 42 41
41 40 39 38 38 38 38 39 40 40 41 41 41 40 40 40 40 39 39 37 35 34 33 32 31 30 29 30 31 32 34 35 35 35 35 35 34 34 34 34 35 35 36 37 38 39 40 41 42 44 45 46 47 48 48 49 50 50 51 51 51 51 50 50 49 49 49 49 48 48 48 48 48 47 47 46 46 46 46 45 45 44 43 41 40 38
40 39 38 37 36 37 37 38 39 39 39 39 39 39 39 39 39 38 37 35 33 32 31 29 28 27 28 29 31 33 33 33 32 32 31 31 31 31 31 31 32 32 34 35 37 38 39 41 42 43 45 46 47 48 48 49 49 50 50 50 50 49 49 48 48 48 48 48 48 48 47 47 47 46 46 45 45 45 45 44 43 42 41 39 37 35
39 38 37 35 35 36 37 38 38 38 38 38 38 38 38 38 37 36 34 33 31 30 28 27 26 26 28 30 31 32 32 31 30 29 28 28 28 27 28 28 29 31 32 34 36 37 39 40 42 43 45 46 46 47 47 48 48 49 49 49 48 48 47 47 47 47 47 47 47 47 47 46 46 45 45 45 44 44 43 42 41 40 38 36 34 32
37 36 35 33 34 35 36 37 37 37 36 36 36 36 36 36 35 33 32 31 29 28 26 26 26 27 28 30 31 31 30 29 28 27 26 26 25 25 26 27 29 31 32 34 35 37 39 40 42 43 44 45 46 46 47 47 47 47 47 47 47 46 46 46 46 47 47 47 47 47 46 46 45 45 44 44 43 42 41 40 39 37 35 33 31 30
35 34 32 31 32 34 36 36 36 35 34 34 35 35 34 33 31 30 30 29 28 26 26 25 26 27 29 30 30 30 29 28 27 26 26 25 24 25 26 28 30 31 33 34 36 37 39 41 42 43 44 44 45 46 46 47 46 46 46 46 46 45 46 46 46 46 46 46 46 46 45 45 44 43 43 42 41 40 39 38 36 34 32 30 29 28
34 32 30 30 32 34 35 34 33 33 33 33 32 32 30 29 29 28 28 27 26 26 26 26 27 28 28 28 28 28 28 28 27 27 26 25 25 26 28 29 31 32 33 34 36 38 39 40 41 42 43 44 45 45 46 45 45 45 45 45 45 45 45 46 46 46 46 46 45 45 44 44 43 42 41 40 39 38 36 35 33 31 29 27 27 27
33 31 30 31 32 33 33 32 31 31 30 30 29 29 28 27 27 27 27 26 26 26 26 26 27 27 27 27 27 27 28 28 28 27 26 26 26 27 29 30 31 32 33 34 36 37 38 40 41 42 43 44 44 45 44 44 44 44 44 44 45 45 45 45 45 45 45 45 44 44 43 42 42 41 40 38 37 35 33 31 29 28 27 26 25 25
33 32 31 31 31 31 30 29 29 28 28 27 27 27 26 26 26 26 26 26 25 25 26 26 26 25 24 24 25 26 27 27 27 27 26 26 27 28 29 30 31 32 33 35 36 37 38 40 41 42 43 43 43 43 43 43 43 43 44 44 45 45 46 46 45 45 45 44 44 43 42 41 40 39 38 36 34 32 30 28 26 26 25 25 25 25
33 33 32 31 30 29 28 27 26 26 26 26 26 26 26 25 25 25 25 25 25 25 25 25 24 23 22 23 24 25 27 27 27 26 26 26 27 28 30 31 32 33 34 36 37 38 39 40 41 42 42 42 42 42 42 42 43 43 43 44 45 45 45 45 45 45 44 43 43 42 41 40 39 37 35 33 31 29 27 25 25 24 24 24 25 26
33 32 31 30 28 27 26 25 24 24 25 25 26 26 26 25 25 25 25 25 25 25 24 24 23 22 22 23 24 25 26 26 26 26 26 27 28 29 31 32 33 34 36 37 38 39 40 41 41 41 41 41 41 41 42 42 42 43 43 44 45 45 45 45 44 44 43 42 42 41 40 38 37 35 33 30 28 26 25 24 24 24 24 24 25 26
31 31 29 28 27 25 24 23 23 23 24 26 26 26 26 25 25 25 25 24 24 23 23 22 22 21 22 23 24 25 26 26 26 26 27 28 30 31 32 34 35 36 37 39 39 40 40 40 40 40 40 40 41 41 41 42 42 43 43 44 44 44 45 44 44 43 42 41 41 40 38 36 34 32 30 28 26 25 24 23 23 24 24 25 25 26
30 29 28 26 24 23 22 22 22 23 24 26 26 26 26 25 25 24 24 23 22 22 22 21 21 21 22 23 24 25 25 26 26 27 29 30 31 33 34 35 36 38 39 40 40 40 40 39 39 39 39 40 40 41 41 42 42 43 43 43 44 44 44 44 43 42 41 41 40 38 37 34 32 29 28 27 26 25 24 23 23 24 24 25 26 26
28 26 25 23 22 21 20 20 21 22 24 25 26 26 26 25 24 22 21 20 20 20 20 20 20 21 22 23 23 24 25 26 27 29 30 31 33 34 35 36 38 39 39 40 39 39 38 38 38 38 39 39 40 40 41 41 42 42 43 43 43 43 43 42 42 41 40 39 38 37 35 32 29 28 27 26 25 25 24 24 24 24 25 25 26 27
25 23 22 20 19 19 19 20 20 21 23 24 25 25 24 22 21 19 18 18 19 19 19 18 19 19 20 22 23 24 25 27 28 29 31 32 33 34 35 37 38 38 39 38 38 37 37 37 38 38 38 39 40 40 41 41 41 42 42 42 42 42 42 42 41 40 39 38 37 35 32 30 28 27 26 26 26 26 26 25 25 25 25 26 26 27
22 20 19 18 18 18 19 19 20 20 21 22 22 22 21 19 18 17 17 17 17 17 17 16 17 18 19 21 23 24 25 26 28 29 30 31 33 34 35 36 36 37 37 36 36 36 37 37 37 38 39 39 40 40 41 41 41 41 42 42 42 41 41 41 40 39 38 37 35 33 31 28 27 26 26 27 27 28 27 27 27 27 26 26 27 28
18 17 16 17 17 18 18 19 18 18 19 19 19 19 18 17 16 16 16 16 16 15 15 15 15 17 19 21 22 23 24 26 27 28 29 31 32 33 34 34 34 34 35 35 35 36 36 37 37 38 39 39 40 40 40 41 41 41 41 41 41 41 40 40 40 39 37 35 33 31 29 28 27 26 27 27 28 29 29 29 29 29 28 28 28 28
15 15 15 16 17 17 18 18 17 17 16 17 17 17 17 16 15 15 15 15 14 14 14 14 16 17 19 20 21 22 23 25 26 28 29 30 31 32 32 32 33 33 34 34 35 35 36 36 37 38 39 39 40 40 40 40 40 40 40 40 40 40 40 39 39 37 36 34 32 30 28 27 27 27 28 28 29 30 31 31 31 31 30 30 30 30
Wind_Direction
290 290 290 290 290 290 290 290 289 287 286 286 286 285 285 284 282 280 280 281 283 285 284 282 281 283 285 287 289 291 293 294 295 294 293 291 288 287 286 286 286 284 282 281 280 280 279 279 279 278 279 279 279 279 280 281 282 283 284 284 284 285 285 286 286 286 287 287 287 288 288 289 290 291 292 293 294 295 296 296 297 297 298 298 298 298
289 290 290 290 290 290 290 290 289 288 287 286 286 285 284 282 280 279 278 279 282 283 283 282 282 283 284 286 288 290 291 292 293 293 293 290 288 286 286 287 286 284 282 281 281 281 281 280 280 280 279 279 279 279 280 281 282 283 284 284 284 284 285 285 286 286 286 287 288 288 289 290 291 291 292 293 294 295 296 297 297 297 298 298 298 298
289 289 290 290 290 290 289 289 289 289 288 287 286 284 282 281 279 277 277 278 280 282 282 282 282 282 284 286 287 289 290 291 292 292 292 290 287 286 286 287 286 284 283 281 281 281 280 280 280 280 280 280 279 280 280 281 282 283 284 284 284 284 285 285 286 286 287 288 288 289 289 290 291 292 292 293 294 295 296 297 297 297 298 298 298 298
288 289 289 290 289 289 289 289 289 289 288 287 285 284 282 280 278 276 275 276 277 279 281 281 281 282 283 285 286 287 288 289 291 291 291 289 287 285 286 286 286 285 283 281 279 278 277 277 278 279 280 280 280 280 280 281 282 283 284 284 285 285 285 286 286 287 287 288 289 289 290 290 291 292 292 293 294 295 296 297 297 297 298 298 298 298
288 288 289 289 289 289 289 290 289 289 287 286 285 284 283 280 277 275 273 273 275 277 279 280 281 282 283 285 286 287 288 289 290 290 289 287 286 284 284 284 284 283 282 281 279 276 275 275 276 277 279 279 279 279 280 281 282 283 284 284 284 284 285 285 286 287 288 289 289 290 290 291 291 292 293 294 295 295 296 297 297 297 298 298 298 298
288 288 288 288 289 289 290 290 289 288 287 286 285 284 282 280 277 274 272 272 273 275 277 279 281 282 284 286 287 287 288 288 289 288 287 285 284 283 282 281 280 280 281 281 279 277 275 275 275 276 278 278 278 279 279 280 281 282 283 283 284 284 285 286 287 288 289 289 290 290 290 291 291 292 293 294 295 295 296 297 297 297 298 298 298 299
288 288 288 288 289 290 290 290 289 288 287 286 285 284 282 279 276 274 272 272 272 274 276 278 280 282 283 285 286 287 287 287 287 286 285 284 283 282 280 278 277 277 278 280 280 278 276 275 275 276 277 277 277 277 279 280 281 282 282 283 283 284 285 287 288 289 289 290 290 290 290 291 291 292 293 294 295 296 296 297 297 298 298 298 299 299
288 287 287 288 288 289 289 289 289 288 287 286 285 283 281 279 276 274 273 273 273 274 276 277 279 280 281 283 284 285 285 286 286 285 285 284 283 282 280 277 276 276 277 278 279 278 276 275 275 275 276 276 276 277 278 279 280 281 282 282 283 284 286 288 289 289 289 290 290 290 290 290 291 292 293 294 295 296 296 297 298 298 298 299 299 299
289 288 288 287 287 287 288 288 287 286 285 284 283 281 280 278 277 275 275 274 275 275 276 277 278 279 279 280 281 283 284 285 285 285 285 283 282 281 279 277 276 276 276 277 277 276 274 273 273 274 274 275 275 276 277 279 280 280 281 282 283 285 287 288 289 289 289 289 289 289 290 290 291 292 293 294 295 296 297 297 298 298 298 299 299 299
290 289 288 288 287 286 286 286 286 285 284 283 281 280 278 277 277 276 276 276 276 276 276 276 277 277 278 279 280 282 283 284 285 285 284 283 281 280 279 277 276 276 276 276 276 275 273 272 272 273 273 274 275 276 277 277 278 279 280 281 283 285 286 287 288 288 289 289 289 289 290 290 291 292 293 294 295 296 297 298 298 298 298 299 299 299
291 289 288 288 287 286 284 284 283 283 282 281 280 279 277 276 276 276 276 276 276 276 276 276 276 277 278 279 280 281 282 284 285 284 283 282 281 280 278 277 276 276 276 276 276 275 273 272 272 272 273 274 275 276 277 277 277 278 280 281 282 284 285 286 287 288 288 288 289 289 290 291 291 293 294 295 296 297 298 298 298 298 298 299 299 299
291 290 289 287 286 284 282 281 281 280 280 280 279 278 276 275 275 275 275 276 276 276 276 276 276 277 278 280 280 281 282 284 285 285 283 282 281 279 278 276 275 275 275 276 276 276 274 273 272 272 273 274 275 275 276 276 277 278 279 280 282 283 284 285 286 287 288 288 289 289 290 291 292 293 294 295 297 297 298 298 298 298 298 299 299 299
292 290 289 287 284 282 280 279 278 278 278 279 279 278 276 275 274 273 274 275 276 276 276 276 276 277 279 280 281 282 284 285 285 284 282 281 280 279 277 275 274 273 274 276 276 276 275 273 273 273 274 274 274 274 275 276 277 278 279 280 281 283 284 285 286 287 288 288 289 290 290 291 292 294 295 296 297 297 298 297 298 298 298 299 299 299
291 289 288 286 283 281 278 277 276 276 276 277 278 278 277 275 274 274 274 275 275 275 275 276 276 278 279 280 281 283 285 286 285 284 281 280 278 277 276 273 272 272 273 275 276 275 274 273 272 273 274 274 274 274 275 276 277 278 278 279 281 282 284 285 286 287 288 288 289 290 291 292 293 294 296 297 297 297 297 297 297 298 298 299 299 299
289 288 286 284 282 279 277 276 274 274 275 276 277 277 276 275 275 275 275 275 275 275 275 275 277 278 279 280 282 284 286 286 285 283 281 280 279 277 275 272 270 270 272 274 274 273 272 271 272 273 274 274 274 275 276 277 277 277 278 279 281 283 284 285 286 287 288 288 289 290 291 292 293 295 296 297 297 297 297 297 297 298 298 299 299 300
288 286 284 282 280 278 275 274 273 273 274 275 275 275 275 275 275 275 275 275 274 274 274 275 276 278 279 280 282 284 285 286 285 283 281 280 279 278 275 271 268 269 271 273 273 271 270 270 271 272 274 274 275 276 277 277 277 277 278 280 282 283 284 285 286 287 288 289 289 290 291 293 294 295 296 297 297 297 297 297 297 298 299 299 299 300
287 285 282 280 278 276 273 271 270 270 272 273 274 274 274 274 275 275 274 274 273 272 272 272 274 275 277 278 280 282 284 284 284 282 281 280 280 279 275 271 268 268 270 272 271 270 269 270 271 273 274 275 275 276 276 276 276 277 278 280 282 283 284 285 286 287 288 289 290 291 292 293 294 296 296 296 296 296 296 297 298 298 299 299 300 300
285 283 281 279 276 274 271 269 268 268 270 271 273 274 275 274 274 274 274 273 272 271 270 270 271 272 274 276 278 280 282 282 282 281 281 281 281 279 276 273 271 270 270 270 269 268 269 271 272 274 274 274 274 274 274 275 275 277 279 281 283 284 285 286 286 287 288 289 290 291 292 293 295 296 296 296 296 296 297 297 298 299 299 300 300 301
284 282 280 277 274 271 270 268 267 267 268 270 272 274 274 274 274 274 273 272 271 270 269 268 268 269 271 274 277 279 280 280 279 279 280 281 281 279 277 275 274 273 271 269 267 266 268 271 273 274 274 273 272 272 272 273 275 277 280 282 283 284 285 286 287 287 288 289 290 291 293 294 295 296 296 296 296 296 297 298 299 299 300 300 301 301
283 281 277 274 271 269 267 266 265 266 267 269 271 272 272 273 273 273 272 272 271 269 268 268 267 267 269 272 276 278 278 277 277 277 279 280 279 278 276 276 275 275 273 269 265 264 266 269 272 273 273 271 270 270 271 273 276 278 281 283 284 285 286 287 287 288 288 289 290 292 293 294 295 295 295 295 296 296 297 298 299 300 300 301 301 302
281 278 275 271 269 266 264 263 263 264 265 267 269 270 270 271 272 272 272 271 270 269 269 268 267 267 268 271 275 277 276 274 273 274 276 277 276 275 273 273 274 275 274 270 265 263 263 266 269 271 270 269 267 268 270 274 277 279 281 283 285 286 287 287 287 288 289 290 291 292 294 295 295 295 295 295 296 297 298 299 300 300 301 302 302 302
278 275 272 268 265 263 262 261 261 261 263 264 266 268 270 271 272 272 272 271 271 270 269 268 267 267 268 271 274 275 273 271 270 271 273 274 273 272 270 270 271 272 273 270 266 262 262 265 267 268 267 266 266 268 271 275 277 278 280 283 285 287 288 288 288 288 289 290 291 293 294 295 295 295 295 295 297 298 299 300 300 301 302 302 302 302
274 272 269 266 263 262 261 260 260 260 261 262 265 268 270 272 273 274 273 272 271 270 269 268 267 266 268 272 274 274 271 268 267 268 270 271 272 271 269 268 268 270 270 269 265 263 262 264 266 266 265 265 267 270 273 274 275 277 279 282 286 288 289 288 288 289 290 291 292 293 294 295 295 295 295 296 297 298 299 300 301 302 302 302 302 302
270 268 266 264 262 261 261 261 261 261 261 263 265 267 270 273 274 275 274 273 272 270 269 268 267 268 270 273 274 273 269 266 265 266 268 270 270 270 269 268 268 269 269 267 264 262 263 265 266 266 266 267 269 271 272 273 273 275 279 284 287 289 289 288 288 289 290 292 293 294 294 294 294 295 295 297 298 299 300 301 302 302 302 303 302 302
268 265 264 263 262 261 261 261 261 261 262 264 265 268 270 272 273 274 273 272 271 270 269 268 269 270 273 274 274 271 267 264 263 265 267 268 269 269 269 269 269 268 267 264 262 261 262 264 265 266 266 268 269 270 270 270 272 276 281 285 288 289 289 288 289 290 291 292 293 294 294 294 294 295 296 298 299 300 301 301 302 302 303 303 302 302
266 264 263 262 261 261 261 260 260 260 262 265 266 267 268 269 270 271 271 270 270 270 269 270 271 273 274 274 272 269 265 263 262 263 265 266 267 268 269 270 269 268 265 261 259 258 259 261 263 264 265 266 267 267 268 269 273 278 283 287 289 289 289 289 289 291 292 293 294 294 294 294 294 296 297 298 299 300 301 302 302 303 303 302 302 301
264 263 262 262 261 261 260 259 259 260 263 265 267 267 267 267 268 268 268 269 269 269 271 273 274 275 274 272 269 266 263 262 261 262 262 263 263 265 268 269 269 266 262 258 256 256 257 259 261 262 263 264 264 265 266 270 275 280 285 288 288 288 289 289 290 292 293 293 294 293 293 294 295 297 298 299 300 301 302 302 303 303 303 302 302 301
262 262 262 262 261 261 260 258 258 260 263 266 267 267 266 266 267 267 268 268 269 271 273 275 276 275 273 270 266 263 261 261 261 261 261 260 260 262 265 268 268 265 260 256 254 254 256 258 260 261 261 262 263 264 267 272 278 283 286 288 288 288 289 290 291 292 293 293 293 293 294 295 296 298 299 300 301 302 302 303 303 303 303 302 302 301
261 261 261 261 261 260 259 258 258 260 263 265 266 266 266 266 267 267 268 269 270 273 276 277 276 274 271 267 264 261 260 260 260 260 260 258 258 259 263 266 266 263 257 254 253 254 256 257 259 260 260 261 263 266 271 276 282 285 287 287 288 288 289 290 292 293 293 293 293 293 294 296 297 299 300 301 302 302 303 303 303 303 303 302 301 301
259 259 260 260 259 258 257 257 258 261 264 265 266 266 266 267 267 268 268 269 272 275 277 277 275 272 269 266 263 261 260 260 260 259 258 257 257 259 262 265 264 260 255 252 252 253 255 256 258 259 260 262 266 270 276 281 284 286 287 287 287 288 289 291 292 292 293 293 293 294 295 297 299 300 301 302 302 303 303 303 303 303 302 301 301 300
258 258 258 257 256 255 255 257 259 262 264 265 266 266 267 267 268 268 268 270 273 276 276 274 272 269 266 264 262 261 260 260 259 258 258 257 258 260 263 264 262 257 254 251 252 253 254 256 257 260 262 266 271 276 280 283 285 286 286 287 287 289 290 291 292 292 292 293 294 295 297 298 299 301 301 302 302 303 303 302 302 302 301 301 300 299
256 256 255 254 253 253 255 258 261 263 264 265 266 266 267 267 267 267 268 271 274 275 273 270 268 265 264 262 261 260 260 260 259 259 259 259 261 262 263 262 258 254 252 251 252 253 255 257 260 263 267 272 276 280 282 284 285 286 286 287 288 289 290 291 292 292 292 293 294 296 298 299 300 301 302 302 302 302 302 302 302 301 301 300 300 299
254 253 251 250 250 253 256 260 263 264 265 265 266 266 266 267 267 268 269 272 273 272 269 267 265 263 262 261 260 260 260 260 260 260 261 261 262 262 260 257 254 251 251 251 253 255 257 260 264 268 272 276 279 282 283 284 285 285 286 287 288 290 291 292 292 292 293 294 295 297 299 300 301 302 302 302 302 302 302 301 301 300 300 300 300 300
253 251 249 248 250 255 259 263 264 265 265 265 265 266 266 266 267 268 271 272 272 269 267 265 263 261 260 259 260 261 262 262 262 261 261 260 259 258 255 253 251 250 250 252 254 257 261 265 269 273 277 279 281 282 284 284 285 286 287 288 290 291 292 292 292 293 294 295 297 299 300 301 302 302 302 302 302 301 301 301 300 300 300 300 301 301
251 249 248 249 253 258 263 265 266 265 265 265 265 265 265 266 267 270 271 271 269 267 265 263 261 259 258 259 261 263 263 263 262 261 259 256 254 251 250 249 249 250 252 255 258 262 266 270 274 277 279 281 282 283 284 285 286 287 288 290 291 292 292 293 293 294 295 297 298 300 301 302 302 302 302 302 301 301 301 300 300 301 301 301 301 301
250 248 247 250 256 261 265 266 266 266 265 265 265 265 265 267 269 271 270 268 266 264 262 260 257 256 257 260 263 264 264 263 261 258 254 250 248 247 246 248 250 253 256 260 264 268 271 275 277 279 281 282 283 284 285 286 287 289 290 291 292 293 293 293 294 295 297 299 300 301 302 302 302 302 302 302 301 301 301 301 301 301 301 302 302 302
248 247 248 253 259 264 266 266 265 265 265 265 265 266 267 269 271 270 268 265 262 260 258 255 253 254 258 262 264 265 264 262 258 254 249 246 244 245 247 250 254 258 262 266 269 273 275 278 279 281 282 283 284 285 286 288 289 290 292 292 293 293 294 294 296 297 298 300 301 302 302 303 302 302 302 302 302 302 301 301 301 301 302 302 302 302
247 247 250 256 262 266 266 265 265 264 264 265 267 269 271 272 270 267 263 260 258 256 252 250 251 255 259 262 263 263 262 259 254 249 245 243 244 247 251 256 260 264 268 271 274 277 279 280 281 282 283 284 285 287 288 290 291 292 292 293 293 294 294 296 297 299 300 301 302 302 303 303 303 303 303 302 302 302 302 301 301 302 302 302 302 302
246 247 252 258 263 265 265 264 264 264 265 267 270 271 272 270 266 262 258 256 254 251 247 247 250 255 258 259 260 260 258 255 250 245 242 242 246 251 256 261 265 269 272 276 278 280 282 283 284 284 286 287 288 289 290 291 292 293 293 294 294 295 296 298 299 300 302 302 303 303 303 303 303 303 303 302 302 302 301 301 301 302 302 303 303 303
245 246 251 256 259 261 261 262 263 265 268 270 271 270 267 263 259 256 254 252 250 247 245 247 251 254 255 256 256 255 254 250 246 243 241 243 248 254 260 264 269 273 277 280 282 284 285 286 286 287 288 289 290 291 292 293 294 294 295 295 296 297 298 299 301 302 302 303 303 303 304 303 303 303 302 302 301 301 301 301 301 302 303 303 304 304
243 245 249 253 256 258 260 262 265 268 270 270 268 264 259 256 253 252 251 249 247 245 246 248 251 252 251 251 250 250 249 246 243 241 241 245 251 257 263 268 273 277 281 283 285 287 288 289 289 290 290 291 292 293 294 295 295 296 296 296 297 298 300 301 302 303 303 303 304 304 303 303 303 302 302 301 300 300 300 301 302 303 304 305 305 305
242 244 247 251 254 258 261 264 267 269 269 266 262 257 254 252 250 250 249 247 246 246 247 248 247 246 244 243 244 244 244 242 240 240 242 247 253 260 266 271 276 280 283 286 288 290 291 291 292 292 292 293 294 295 296 296 297 297 298 298 299 300 301 302 303 303 304 304 304 303 303 303 302 301 301 300 300 300 300 301 302 304 305 306 306 306
242 244 247 251 254 258 262 266 268 269 266 262 258 254 252 251 250 248 247 247 247 247 246 244 241 238 235 235 237 239 240 239 238 240 244 250 257 263 269 274 278 281 285 288 290 292 293 293 293 293 294 295 296 297 297 298 298 299 299 300 301 302 302 303 304 304 304 304 304 303 303 302 302 301 300 299 298 299 300 301 303 305 306 307 307 306
243 245 248 252 256 260 264 268 269 267 263 259 256 254 252 251 249 248 247 247 247 245 241 237 233 231 229 229 232 235 237 238 239 242 248 254 261 266 271 275 279 282 286 289 291 292 293 293 293 294 295 296 297 298 298 299 299 300 300 301 302 302 303 303 304 304 304 304 304 303 303 302 301 300 298 297 297 297 299 301 303 305 306 306 306 305
244 246 249 253 257 262 267 270 269 266 261 258 255 254 252 251 249 248 248 247 243 238 233 228 225 223 222 225 230 234 237 240 243 247 253 258 263 268 272 275 279 283 286 289 291 292 293 294 295 296 297 298 299 299 299 300 300 301 302 302 302 303 303 304 304 305 304 304 303 303 302 301 299 297 296 295 294 295 297 299 301 303 304 304 303 303
246 248 251 254 259 265 269 271 268 263 259 256 254 253 253 252 250 249 246 241 235 228 223 221 219 217 218 223 229 235 240 244 248 252 257 261 265 269 272 276 279 283 286 289 291 292 293 295 297 298 299 299 299 300 300 301 302 302 302 303 303 303 304 304 304 304 304 303 302 302 300 298 296 294 292 292 292 293 294 296 298 300 301 301 301 301
247 249 252 257 262 268 270 269 265 260 256 254 254 254 253 252 249 244 237 229 222 217 215 215 215 215 218 223 230 237 242 247 251 255 259 263 266 270 274 277 281 284 287 289 291 293 295 297 299 300 300 300 300 301 301 302 303 303 303 303 303 304 304 304 304 304 303 302 301 299 298 296 293 291 289 289 289 290 292 293 295 297 298 299 300 299
247 249 254 260 265 269 268 265 261 257 254 253 253 253 252 247 240 230 221 214 211 210 211 211 212 215 220 227 234 240 245 249 253 256 260 264 269 272 276 280 283 286 288 290 293 295 298 300 301 301 301 301 301 302 302 303 303 303 303 303 304 304 304 304 303 303 302 300 298 297 294 292 289 288 287 288 288 289 290 291 293 294 296 297 298 298
247 251 258 263 266 265 262 258 254 251 250 250 250 248 243 233 222 211 206 204 205 206 207 208 211 217 224 231 237 242 247 251 255 259 263 268 272 276 279 282 285 288 290 293 295 298 301 302 302 302 302 302 303 303 304 304 304 304 304 304 304 304 303 303 302 301 299 297 296 293 291 289 287 286 287 288 288 289 290 291 292 292 294 294 295 295
249 256 262 264 262 258 252 248 245 243 244 245 242 235 224 213 204 199 199 200 202 202 204 207 213 221 228 235 240 245 250 255 259 264 268 272 276 279 282 285 288 291 293 296 299 301 302 302 302 302 303 303 304 304 305 305 305 304 304 304 303 303 302 301 300 299 297 295 293 291 289 287 287 287 288 288 289 290 290 290 291 291 292 292 293 293
254 261 264 260 255 248 242 237 235 237 238 235 227 217 206 197 193 194 196 198 200 202 205 212 220 228 235 241 246 251 256 261 265 269 273 276 279 283 286 289 292 294 297 299 301 302 302 302 302 302 303 304 305 305 305 305 305 304 304 303 302 301 300 299 298 297 295 293 291 289 288 288 288 289 289 290 290 290 290 290 290 291 291 291 291 291
Height
5553 5553 5553 5553 5552 5550 5549 5549 5549 5549 5547 5547 5547 5546 5545 5543 5542 5541 5541 5540 5539 5539 5538 5537 5536 5535 5535 5534 5533 5532 5532 5531 5531 5532 5534 5533 5531 5530 5529 5529 5530 5529 5529 5529 5528 5527 5527 5526 5526 5525 5524 5523 5523 5522 5522 5522 5521 5521 5521 5521 5521 5520 5518 5518 5517 5516 5515 5514 5514 5513 5511 5510 5509 5508 5506 5504 5503 5501 5499 5498 5496 5494 5492 5490 5488 5486
5548 5548 5547 5547 5547 5545 5543 5544 5544 5543 5542 5541 5540 5540 5539 5538 5537 5536 5536 5535 5535 5534 5533 5532 5532 5531 5530 5530 5529 5529 5528 5527 5527 5528 5529 5529 5528 5526 5525 5526 5526 5525 5525 5524 5524 5524 5523 5523 5522 5521 5520 5519 5519 5518 5518 5518 5517 5517 5517 5517 5516 5516 5514 5514 5513 5512 5511 5510 5509 5508 5507 5506 5505 5503 5502 5500 5498 5496 5495 5493 5491 5489 5487 5485 5483 5481
5542 5541 5540 5541 5540 5539 5538 5538 5538 5538 5537 5535 5535 5534 5534 5533 5532 5531 5531 5531 5530 5529 5529 5528 5528 5527 5526 5525 5525 5524 5524 5523 5523 5524 5525 5525 5525 5523 5522 5522 5521 5521 5521 5521 5521 5520 5520 5520 5519 5518 5517 5516 5515 5514 5514 5514 5514 5513 5513 5513 5512 5511 5510 5509 5509 5508 5507 5506 5505 5504 5503 5502 5500 5499 5497 5495 5494 5492 5490 5488 5486 5484 5482 5480 5479 5476
5537 5535 5534 5534 5534 5533 5533 5533 5533 5532 5531 5530 5529 5529 5529 5528 5527 5527 5527 5526 5525 5524 5524 5524 5523 5523 5521 5521 5521 5520 5520 5519 5519 5519 5521 5522 5521 5521 5520 5519 5517 5517 5517 5517 5517 5517 5516 5515 5515 5514 5513 5513 5512 5511 5510 5510 5510 5509 5509 5509 5508 5507 5506 5505 5505 5504 5503 5502 5501 5500 5499 5497 5496 5494 5493 5491 5489 5487 5485 5484 5482 5479 5478 5476 5474 5471
5531 5530 5529 5528 5527 5527 5528 5529 5528 5527 5526 5525 5524 5524 5524 5523 5523 5522 5522 5521 5521 5520 5519 5519 5519 5518 5517 5517 5517 5516 5516 5515 5515 5516 5518 5517 5517 5517 5516 5516 5515 5514 5514 5512 5512 5511 5511 5510 5510 5510 5510 5510 5509 5508 5507 5506 5506 5506 5505 5505 5504 5504 5503 5502 5501 5500 5499 5498 5497 5496 5494 5493 5491 5490 5488 5486 5484 5483 5481 5479 5477 5475 5473 5471 5469 5466
5525 5526 5525 5523 5521 5521 5522 5523 5523 5522 5520 5519 5519 5519 5519 5518 5518 5517 5517 5516 5516 5515 5515 5514 5514 5513 5513 5513 5512 5512 5512 5511 5512 5513 5514 5513 5512 5512 5512 5512 5511 5511 5510 5508 5508 5507 5507 5506 5506 5506 5506 5507 5506 5504 5504 5503 5503 5502 5502 5501 5500 5500 5499 5498 5497 5496 5495 5494 5493 5491 5490 5489 5487 5485 5484 5482 5480 5478 5476 5474 5472 5470 5468 5466 5464 5461
5519 5519 5520 5519 5516 5515 5516 5517 5517 5517 5516 5514 5513 5513 5513 5513 5513 5513 5512 5512 5511 5511 5510 5510 5509 5509 5509 5508 5508 5508 5508 5508 5508 5508 5509 5509 5508 5507 5507 5506 5506 5505 5504 5504 5505 5505 5504 5503 5503 5503 5503 5502 5502 5501 5500 5499 5499 5498 5498 5497 5497 5496 5495 5494 5493 5492 5491 5490 5489 5487 5486 5484 5482 5481 5479 5477 5475 5473 5471 5469 5467 5465 5463 5461 5459 5456
5512 5512 5514 5513 5512 5511 5510 5511 5511 5512 5511 5510 5508 5507 5507 5508 5508 5508 5508 5507 5507 5506 5506 5505 5505 5505 5504 5504 5504 5503 5503 5504 5503 5503 5503 5504 5504 5503 5503 5502 5501 5500 5500 5501 5503 5503 5502 5500 5499 5499 5499 5498 5497 5497 5496 5496 5495 5494 5494 5494 5493 5492 5491 5490 5489 5488 5487 5486 5484 5483 5481 5479 5478 5476 5474 5472 5470 5469 5466 5464 5462 5460 5458 5456 5454 5452
5507 5506 5507 5507 5507 5506 5504 5504 5505 5506 5507 5507 5505 5503 5501 5501 5502 5503 5503 5503 5502 5502 5502 5501 5500 5500 5500 5500 5499 5499 5499 5499 5499 5498 5498 5498 5499 5499 5499 5498 5497 5496 5496 5498 5498 5498 5497 5497 5496 5495 5495 5494 5493 5493 5493 5492 5491 5491 5490 5490 5489 5488 5487 5486 5485 5484 5483 5481 5480 5479 5477 5475 5474 5472 5470 5468 5466 5464 5462 5459 5458 5455 5453 5451 5449 5447
5501 5501 5501 5501 5501 5501 5500 5499 5499 5500 5502 5502 5501 5499 5497 5496 5496 5497 5498 5498 5498 5498 5497 5496 5495 5495 5495 5495 5495 5495 5494 5494 5494 5494 5494 5493 5494 5494 5494 5494 5493 5492 5492 5493 5494 5493 5493 5493 5492 5491 5490 5490 5489 5489 5489 5489 5488 5487 5487 5486 5485 5484 5483 5482 5481 5479 5478 5477 5475 5474 5472 5471 5469 5467 5465 5463 5461 5459 5457 5455 5453 5451 5449 5446 5444 5442
5495 5495 5495 5496 5496 5495 5495 5494 5494 5495 5496 5496 5495 5494 5493 5492 5492 5492 5492 5492 5492 5493 5492 5491 5491 5491 5490 5490 5491 5491 5490 5490 5489 5489 5489 5489 5489 5489 5489 5489 5489 5489 5488 5488 5488 5488 5488 5489 5489 5488 5487 5486 5486 5486 5485 5484 5484 5484 5483 5482 5481 5480 5479 5478 5477 5475 5474 5473 5471 5469 5468 5466 5464 5463 5460 5459 5457 5454 5452 5450 5448 5446 5444 5442 5439 5437
5489 5489 5489 5489 5490 5491 5491 5490 5490 5490 5490 5490 5489 5488 5487 5488 5488 5488 5486 5486 5486 5487 5486 5486 5486 5487 5487 5486 5486 5486 5486 5486 5485 5484 5485 5485 5486 5485 5485 5485 5485 5485 5484 5483 5483 5483 5484 5485 5484 5484 5483 5482 5482 5481 5481 5480 5480 5479 5479 5478 5477 5476 5475 5474 5472 5471 5469 5468 5467 5465 5463 5462 5460 5458 5456 5454 5452 5450 5448 5446 5444 5441 5439 5437 5434 5432
5483 5483 5483 5483 5484 5486 5488 5488 5487 5486 5485 5485 5484 5483 5482 5483 5483 5482 5481 5480 5481 5482 5481 5481 5481 5482 5483 5482 5482 5481 5481 5481 5481 5482 5483 5481 5481 5481 5481 5481 5481 5481 5480 5479 5478 5479 5480 5480 5480 5479 5479 5478 5478 5477 5477 5476 5476 5475 5475 5474 5473 5472 5471 5469 5468 5467 5465 5464 5462 5460 5459 5457 5455 5453 5451 5449 5448 5445 5443 5441 5439 5437 5434 5432 5429 5427
5477 5478 5478 5477 5477 5478 5482 5484 5483 5480 5479 5479 5479 5478 5478 5478 5478 5477 5477 5476 5476 5477 5477 5476 5476 5477 5478 5478 5477 5477 5477 5477 5477 5477 5477 5476 5476 5477 5478 5478 5478 5477 5476 5475 5474 5474 5475 5475 5475 5474 5474 5474 5473 5473 5473 5472 5472 5471 5470 5469 5469 5468 5466 5465 5464 5462 5461 5459 5458 5456 5454 5452 5450 5449 5447 5445 5443 5441 5439 5436 5434 5432 5430 5427 5424 5422
5473 5473 5473 5472 5471 5472 5474 5477 5477 5475 5474 5474 5474 5474 5474 5473 5473 5473 5473 5472 5472 5472 5472 5472 5471 5472 5473 5473 5473 5473 5473 5472 5472 5471 5471 5470 5471 5472 5474 5475 5474 5473 5472 5471 5470 5471 5471 5471 5470 5470 5470 5469 5469 5469 5469 5468 5468 5467 5466 5465 5464 5463 5462 5460 5459 5458 5456 5455 5453 5451 5449 5448 5446 5444 5442 5440 5438 5436 5434 5432 5430 5427 5425 5422 5420 5417
5468 5469 5468 5466 5466 5467 5468 5470 5471 5472 5471 5471 5471 5470 5470 5469 5468 5468 5468 5467 5467 5468 5468 5467 5467 5467 5468 5468 5469 5469 5468 5468 5467 5466 5466 5466 5466 5467 5469 5470 5470 5469 5467 5467 5467 5467 5467 5466 5466 5466 5465 5465 5465 5465 5465 5464 5464 5463 5462 5461 5460 5459 5457 5456 5455 5453 5452 5450 5449 5447 5445 5443 5441 5439 5438 5435 5434 5431 5429 5427 5425 5423 5420 5418 5415 5412
5462 5462 5461 5461 5460 5461 5462 5463 5464 5466 5468 5468 5467 5466 5465 5464 5463 5463 5463 5463 5463 5463 5463 5464 5465 5465 5463 5464 5464 5464 5464 5463 5462 5462 5462 5461 5461 5462 5464 5465 5465 5464 5463 5463 5463 5462 5462 5462 5462 5462 5462 5462 5462 5462 5461 5461 5460 5459 5458 5457 5456 5454 5453 5452 5450 5449 5447 5446 5444 5442 5441 5439 5437 5435 5433 5431 5429 5427 5424 5422 5420 5418 5415 5413 5410 5408
5456 5455 5455 5455 5455 5455 5456 5456 5458 5459 5461 5463 5462 5461 5459 5459 5459 5459 5459 5459 5459 5459 5457 5458 5459 5460 5460 5459 5459 5460 5461 5460 5459 5457 5458 5457 5457 5458 5458 5459 5459 5459 5459 5459 5459 5458 5458 5457 5458 5458 5458 5458 5459 5458 5458 5457 5455 5454 5454 5453 5451 5450 5449 5447 5446 5444 5443 5441 5439 5438 5436 5434 5432 5430 5428 5426 5424 5422 5420 5418 5415 5413 5410 5408 5405 5403
5450 5450 5450 5449 5449 5449 5451 5451 5452 5454 5455 5456 5457 5457 5456 5454 5454 5454 5453 5453 5453 5453 5452 5452 5452 5453 5454 5454 5454 5455 5457 5457 5456 5455 5454 5453 5453 5453 5454 5455 5455 5454 5454 5454 5454 5454 5454 5454 5454 5454 5455 5455 5455 5454 5453 5452 5451 5451 5450 5449 5447 5446 5444 5443 5442 5440 5439 5437 5435 5433 5431 5429 5428 5425 5424 5421 5419 5417 5415 5413 5410 5408 5405 5403 5400 5398
5444 5444 5444 5444 5444 5444 5444 5445 5447 5449 5450 5452 5453 5454 5453 5450 5449 5449 5447 5447 5447 5447 5446 5447 5447 5447 5448 5448 5449 5450 5452 5454 5454 5452 5450 5450 5449 5449 5450 5451 5451 5449 5450 5450 5450 5451 5451 5450 5450 5451 5451 5451 5450 5449 5449 5448 5448 5447 5446 5444 5443 5442 5440 5439 5437 5436 5434 5432 5430 5429 5427 5425 5423 5421 5419 5417 5414 5412 5410 5408 5405 5403 5400 5398 5395 5393
5439 5438 5439 5439 5440 5439 5438 5438 5440 5443 5445 5448 5448 5447 5445 5444 5443 5442 5442 5442 5442 5441 5442 5442 5442 5442 5443 5444 5444 5444 5447 5449 5450 5449 5447 5447 5446 5445 5446 5447 5447 5446 5446 5446 5446 5447 5447 5447 5447 5447 5447 5446 5446 5445 5444 5444 5443 5442 5441 5440 5439 5437 5436 5434 5433 5431 5429 5428 5426 5424 5422 5420 5418 5416 5414 5412 5409 5407 5405 5403 5400 5398 5395 5393 5390 5388
5433 5432 5433 5434 5435 5434 5433 5432 5434 5436 5439 5442 5442 5441 5439 5438 5438 5437 5437 5437 5437 5437 5437 5437 5437 5438 5439 5439 5439 5439 5441 5443 5444 5444 5443 5443 5441 5440 5442 5444 5444 5443 5442 5442 5442 5443 5443 5443 5443 5443 5443 5442 5441 5440 5440 5439 5439 5438 5437 5435 5434 5433 5431 5430 5428 5426 5425 5423 5421 5419 5417 5415 5413 5411 5409 5407 5405 5403 5400 5398 5395 5393 5390 5388 5386 5383
5428 5427 5427 5428 5428 5427 5427 5428 5429 5430 5433 5435 5435 5435 5434 5434 5434 5432 5432 5432 5432 5432 5432 5432 5433 5434 5434 5434 5434 5435 5436 5438 5439 5439 5439 5438 5436 5436 5438 5440 5440 5439 5438 5439 5439 5439 5439 5439 5439 5439 5438 5437 5436 5436 5435 5435 5434 5433 5432 5431 5430 5428 5427 5425 5424 5422 5420 5419 5417 5415 5413 5411 5409 5407 5404 5402 5400 5398 5395 5393 5391 5388 5386 5383 5381 5378
5422 5421 5421 5421 5421 5422 5422 5422 5423 5425 5426 5428 5429 5430 5430 5431 5431 5429 5429 5428 5428 5428 5428 5428 5429 5429 5429 5429 5430 5431 5431 5433 5434 5435 5434 5433 5432 5432 5434 5435 5435 5435 5434 5434 5435 5435 5435 5435 5435 5434 5433 5432 5432 5432 5431 5430 5430 5429 5428 5427 5425 5424 5422 5421 5419 5418 5416 5414 5412 5410 5408 5406 5404 5402 5400 5398 5395 5393 5391 5388 5386 5384 5381 5379 5376 5374
5416 5416 5416 5416 5416 5417 5417 5418 5419 5420 5422 5424 5425 5425 5426 5428 5428 5427 5426 5425 5424 5424 5424 5424 5424 5424 5424 5425 5426 5426 5426 5428 5430 5431 5430 5429 5429 5429 5429 5431 5431 5431 5430 5430 5431 5431 5432 5432 5431 5429 5429 5428 5428 5428 5427 5426 5426 5425 5424 5423 5421 5420 5418 5416 5415 5413 5411 5409 5408 5406 5404 5401 5399 5397 5395 5393 5391 5388 5386 5384 5382 5379 5377 5374 5372 5369
5411 5411 5411 5411 5411 5412 5413 5414 5415 5416 5417 5419 5421 5422 5423 5424 5424 5423 5422 5420 5419 5419 5419 5419 5419 5419 5419 5421 5421 5421 5422 5423 5425 5426 5426 5426 5425 5424 5425 5427 5427 5427 5426 5426 5427 5428 5428 5428 5427 5425 5424 5424 5424 5424 5423 5423 5422 5421 5420 5419 5417 5415 5414 5412 5410 5409 5407 5405 5403 5401 5399 5397 5395 5393 5390 5388 5386 5384 5381 5379 5377 5374 5372 5369 5367 5364
5405 5405 5406 5406 5407 5408 5409 5410 5411 5412 5413 5415 5417 5419 5419 5419 5419 5417 5415 5414 5414 5415 5415 5415 5415 5415 5415 5416 5417 5417 5418 5419 5420 5421 5422 5422 5421 5421 5421 5423 5423 5423 5422 5422 5423 5424 5424 5423 5422 5421 5421 5420 5420 5420 5419 5419 5418 5417 5416 5414 5413 5411 5409 5408 5406 5404 5403 5401 5399 5397 5394 5392 5390 5388 5386 5383 5381 5379 5377 5375 5372 5370 5368 5365 5363 5360
5400 5401 5401 5402 5403 5404 5405 5406 5407 5408 5409 5410 5412 5414 5414 5414 5413 5411 5409 5410 5411 5411 5411 5411 5411 5411 5411 5412 5412 5413 5414 5415 5415 5416 5418 5418 5418 5417 5417 5418 5419 5419 5418 5418 5419 5419 5419 5419 5418 5417 5417 5416 5416 5416 5415 5415 5414 5413 5412 5410 5409 5407 5405 5404 5402 5400 5398 5396 5394 5392 5390 5388 5385 5383 5381 5379 5376 5374 5372 5370 5368 5365 5363 5361 5358 5356
5396 5396 5397 5398 5399 5399 5400 5401 5402 5403 5404 5406 5408 5408 5408 5407 5407 5405 5405 5406 5407 5407 5407 5407 5407 5407 5407 5408 5408 5409 5410 5411 5411 5412 5414 5415 5414 5413 5413 5414 5414 5414 5414 5414 5414 5414 5414 5414 5414 5413 5413 5413 5413 5412 5412 5411 5410 5409 5408 5406 5404 5403 5401 5399 5398 5396 5394 5392 5390 5388 5385 5383 5381 5379 5376 5374 5372 5369 5368 5365 5363 5361 5359 5357 5354 5352
5391 5392 5393 5394 5395 5396 5397 5397 5398 5399 5400 5401 5403 5403 5402 5402 5402 5401 5402 5403 5404 5404 5403 5403 5403 5403 5403 5404 5404 5405 5405 5406 5407 5409 5410 5411 5409 5409 5409 5410 5410 5409 5409 5409 5409 5409 5409 5410 5410 5409 5409 5409 5409 5409 5408 5407 5406 5405 5404 5402 5400 5399 5397 5395 5394 5392 5390 5388 5385 5383 5381 5379 5376 5374 5372 5369 5367 5365 5363 5361 5359 5357 5355 5353 5351 5349
5387 5388 5389 5390 5391 5392 5393 5394 5394 5395 5396 5396 5397 5398 5398 5398 5398 5398 5399 5399 5399 5400 5400 5400 5399 5399 5399 5400 5400 5400 5401 5402 5403 5405 5406 5406 5405 5404 5405 5406 5405 5405 5405 5405 5405 5406 5406 5405 5406 5406 5406 5405 5405 5405 5404 5404 5402 5401 5399 5398 5396 5395 5393 5392 5389 5388 5385 5383 5381 5379 5377 5374 5372 5370 5368 5365 5363 5361 5359 5357 5355 5353 5351 5349 5347 5345
5383 5384 5385 5386 5388 5389 5389 5390 5390 5391 5391 5392 5392 5393 5394 5394 5394 5394 5395 5395 5396 5397 5397 5396 5395 5394 5395 5396 5396 5397 5397 5399 5400 5401 5402 5402 5401 5400 5401 5401 5401 5400 5400 5401 5402 5402 5402 5402 5402 5402 5403 5402 5402 5401 5400 5399 5398 5397 5395 5394 5392 5391 5389 5388 5385 5383 5381 5379 5377 5374 5373 5370 5368 5366 5363 5361 5359 5357 5355 5353 5351 5349 5348 5346 5344 5342
5378 5380 5381 5383 5384 5384 5385 5386 5386 5387 5388 5388 5389 5389 5389 5390 5390 5390 5391 5391 5392 5393 5393 5392 5392 5391 5391 5392 5393 5394 5395 5397 5397 5397 5397 5397 5397 5396 5397 5397 5396 5396 5397 5398 5398 5398 5399 5398 5398 5398 5399 5399 5398 5397 5396 5395 5394 5393 5391 5390 5388 5387 5385 5384 5381 5379 5377 5375 5373 5370 5368 5366 5364 5361 5359 5357 5355 5353 5351 5349 5347 5346 5344 5343 5341 5339
5374 5375 5377 5379 5380 5381 5381 5382 5383 5383 5384 5384 5385 5385 5385 5386 5386 5386 5387 5388 5389 5389 5389 5389 5388 5388 5389 5390 5391 5392 5393 5393 5393 5393 5393 5393 5393 5392 5392 5392 5393 5393 5394 5394 5395 5395 5395 5395 5395 5395 5394 5394 5394 5394 5393 5391 5390 5389 5387 5386 5384 5383 5381 5379 5377 5375 5372 5370 5368 5366 5364 5362 5359 5357 5355 5353 5351 5349 5347 5345 5344 5342 5340 5339 5337 5335
5369 5371 5373 5374 5376 5377 5378 5379 5379 5380 5380 5381 5381 5382 5382 5382 5383 5383 5384 5384 5385 5386 5386 5385 5386 5386 5387 5388 5389 5389 5389 5388 5388 5389 5389 5389 5389 5388 5389 5389 5389 5390 5391 5391 5392 5392 5392 5392 5392 5391 5390 5390 5389 5389 5389 5387 5386 5384 5382 5381 5380 5378 5376 5374 5372 5370 5368 5365 5363 5361 5359 5357 5355 5353 5351 5349 5347 5345 5343 5342 5340 5338 5337 5335 5333 5332
5366 5367 5369 5371 5372 5373 5374 5375 5375 5376 5377 5377 5378 5378 5378 5379 5379 5380 5380 5381 5382 5382 5382 5383 5383 5384 5385 5385 5386 5385 5384 5384 5384 5385 5385 5385 5385 5385 5385 5386 5387 5388 5388 5388 5389 5389 5389 5388 5388 5388 5387 5386 5385 5384 5384 5383 5382 5380 5378 5377 5375 5373 5371 5369 5367 5365 5363 5361 5359 5357 5355 5353 5351 5349 5347 5345 5343 5341 5339 5338 5336 5334 5333 5331 5329 5328
5362 5364 5365 5367 5369 5369 5370 5371 5372 5372 5373 5373 5374 5374 5375 5375 5376 5377 5378 5378 5378 5379 5379 5380 5380 5382 5382 5383 5382 5382 5381 5381 5381 5382 5382 5382 5382 5382 5383 5384 5384 5385 5385 5385 5385 5385 5385 5385 5384 5384 5383 5382 5381 5380 5379 5379 5377 5376 5374 5373 5371 5369 5367 5365 5363 5361 5358 5356 5354 5352 5350 5348 5346 5344 5343 5341 5339 5337 5335 5334 5332 5330 5329 5328 5326 5324
5359 5361 5362 5364 5365 5366 5367 5367 5368 5369 5369 5369 5370 5371 5372 5373 5373 5374 5374 5374 5375 5375 5376 5377 5378 5379 5380 5379 5379 5378 5378 5378 5378 5379 5379 5379 5379 5380 5380 5381 5382 5382 5383 5382 5382 5382 5382 5381 5380 5380 5379 5378 5377 5376 5375 5374 5373 5371 5370 5368 5367 5365 5363 5360 5358 5356 5354 5352 5349 5348 5346 5344 5342 5340 5338 5336 5335 5333 5331 5330 5328 5327 5325 5324 5323 5321
5355 5357 5359 5360 5362 5363 5364 5364 5364 5365 5366 5366 5367 5368 5369 5369 5369 5370 5370 5371 5372 5373 5374 5375 5376 5377 5376 5376 5375 5374 5374 5374 5375 5375 5376 5376 5377 5377 5378 5379 5379 5379 5379 5379 5379 5379 5378 5377 5376 5376 5375 5374 5372 5371 5370 5369 5368 5366 5365 5363 5362 5360 5358 5356 5354 5351 5349 5347 5345 5343 5341 5339 5337 5336 5334 5332 5331 5329 5328 5326 5325 5324 5322 5321 5319 5318
5352 5354 5355 5357 5358 5359 5359 5360 5361 5362 5363 5364 5364 5365 5365 5366 5366 5366 5367 5368 5369 5370 5371 5372 5373 5373 5373 5372 5372 5371 5371 5372 5372 5372 5373 5373 5374 5375 5375 5376 5376 5376 5377 5376 5376 5375 5374 5373 5372 5371 5370 5369 5368 5367 5366 5364 5363 5362 5360 5358 5356 5355 5354 5352 5349 5347 5345 5343 5341 5339 5337 5335 5333 5332 5330 5329 5327 5326 5324 5323 5321 5320 5319 5318 5317 5315
5349 5351 5352 5354 5355 5356 5357 5358 5359 5359 5360 5361 5361 5361 5361 5362 5362 5363 5364 5365 5367 5368 5369 5369 5370 5370 5370 5369 5369 5369 5369 5369 5369 5370 5370 5371 5371 5372 5373 5373 5374 5374 5374 5373 5373 5372 5371 5369 5368 5367 5366 5365 5364 5362 5361 5360 5358 5357 5355 5353 5351 5349 5348 5347 5345 5343 5340 5338 5337 5335 5333 5331 5329 5328 5326 5325 5323 5322 5321 5319 5318 5317 5316 5314 5314 5313
5346 5348 5349 5350 5352 5353 5354 5355 5356 5357 5358 5358 5358 5357 5358 5358 5359 5360 5361 5363 5364 5365 5366 5367 5367 5367 5366 5366 5366 5366 5366 5366 5367 5367 5368 5369 5369 5369 5370 5370 5370 5371 5370 5369 5369 5368 5367 5366 5364 5363 5362 5361 5359 5358 5356 5355 5354 5352 5350 5348 5346 5344 5343 5341 5340 5339 5337 5334 5332 5331 5329 5328 5326 5324 5323 5321 5319 5318 5317 5316 5315 5314 5313 5311 5310 5309
5343 5345 5346 5348 5349 5350 5352 5353 5354 5354 5355 5354 5354 5354 5355 5356 5357 5358 5359 5360 5361 5362 5362 5363 5363 5363 5363 5363 5364 5364 5364 5364 5364 5365 5365 5366 5366 5367 5367 5367 5367 5367 5367 5366 5365 5364 5364 5363 5361 5359 5358 5357 5355 5353 5352 5350 5349 5347 5345 5343 5341 5339 5337 5336 5335 5334 5332 5330 5329 5327 5325 5324 5322 5320 5319 5317 5316 5315 5314 5313 5312 5311 5309 5308 5307 5306
5341 5342 5344 5345 5347 5348 5349 5350 5350 5351 5352 5352 5352 5352 5353 5354 5355 5356 5356 5357 5358 5358 5359 5359 5360 5360 5360 5360 5361 5361 5361 5362 5362 5363 5363 5364 5364 5364 5364 5364 5364 5364 5363 5363 5362 5361 5360 5359 5358 5356 5354 5353 5351 5349 5347 5346 5344 5342 5340 5338 5336 5334 5333 5331 5330 5329 5328 5326 5324 5323 5321 5319 5318 5316 5314 5314 5312 5311 5310 5309 5309 5307 5306 5305 5304 5303
5339 5340 5342 5343 5344 5346 5346 5347 5348 5349 5349 5350 5350 5350 5351 5352 5353 5353 5354 5354 5354 5355 5356 5356 5357 5357 5357 5358 5359 5359 5359 5360 5360 5361 5361 5361 5362 5362 5362 5361 5361 5361 5360 5359 5359 5358 5356 5355 5354 5352 5351 5349 5347 5345 5343 5341 5339 5337 5335 5334 5332 5330 5328 5327 5326 5324 5323 5322 5320 5319 5317 5316 5314 5313 5311 5310 5309 5308 5307 5307 5305 5304 5303 5302 5301 5299
5336 5338 5339 5341 5342 5343 5344 5344 5346 5347 5348 5348 5348 5348 5349 5349 5350 5350 5350 5351 5352 5353 5353 5354 5354 5354 5355 5356 5356 5357 5357 5358 5358 5359 5359 5359 5359 5359 5359 5359 5358 5358 5357 5356 5355 5354 5353 5352 5350 5348 5346 5344 5343 5341 5339 5337 5335 5333 5331 5329 5328 5326 5324 5323 5322 5320 5319 5317 5316 5315 5313 5312 5311 5309 5308 5306 5305 5305 5304 5303 5302 5301 5300 5299 5298 5296
5334 5336 5337 5339 5340 5340 5341 5343 5344 5345 5345 5346 5346 5346 5347 5347 5347 5348 5348 5349 5350 5350 5351 5351 5352 5352 5353 5354 5354 5355 5355 5356 5356 5357 5357 5357 5357 5357 5356 5356 5355 5354 5354 5353 5352 5351 5350 5348 5347 5344 5342 5340 5338 5337 5335 5333 5331 5329 5327 5325 5323 5322 5320 5319 5317 5316 5315 5313 5312 5311 5309 5309 5307 5305 5304 5303 5302 5301 5301 5300 5299 5298 5297 5296 5294 5293
5333 5334 5335 5336 5338 5339 5340 5341 5342 5343 5343 5344 5344 5344 5345 5345 5345 5346 5346 5347 5348 5348 5349 5349 5350 5351 5352 5353 5353 5353 5354 5354 5354 5354 5355 5355 5355 5354 5354 5353 5352 5351 5350 5349 5349 5347 5346 5344 5343 5341 5339 5337 5334 5333 5331 5329 5327 5325 5323 5321 5319 5318 5316 5314 5314 5312 5311 5309 5308 5307 5306 5305 5304 5302 5301 5299 5298 5297 5297 5296 5296 5295 5294 5293 5292 5290
5331 5332 5334 5334 5336 5337 5338 5339 5340 5341 5341 5342 5342 5342 5343 5343 5344 5344 5345 5345 5346 5346 5347 5347 5348 5349 5350 5351 5351 5351 5352 5352 5352 5353 5353 5352 5352 5352 5351 5350 5349 5349 5348 5347 5345 5344 5342 5340 5339 5337 5335 5333 5331 5329 5327 5325 5323 5321 5319 5317 5315 5314 5312 5311 5309 5309 5307 5306 5304 5304 5303 5301 5300 5299 5298 5296 5294 5294 5293 5293 5292 5292 5291 5290 5289 5288
5329 5330 5332 5333 5334 5335 5336 5337 5338 5339 5339 5340 5340 5341 5341 5342 5342 5343 5343 5343 5344 5344 5345 5346 5347 5348 5349 5349 5349 5349 5350 5350 5350 5350 5350 5350 5349 5349 5348 5347 5346 5345 5344 5343 5342 5340 5339 5337 5335 5334 5332 5330 5327 5325 5323 5320 5319 5317 5315 5314 5312 5310 5309 5307 5306 5305 5304 5302 5301 5300 5299 5298 5297 5296 5294 5293 5291 5290 5289 5289 5289 5288 5288 5287 5286 5285
5328 5329 5330 5331 5332 5333 5334 5335 5337 5337 5338 5338 5339 5339 5340 5340 5341 5341 5341 5341 5342 5342 5343 5344 5345 5346 5346 5347 5347 5348 5348 5348 5348 5348 5348 5347 5347 5346 5345 5344 5343 5342 5341 5339 5338 5336 5335 5334 5332 5330 5328 5326 5324 5322 5319 5317 5315 5313 5312 5310 5309 5308 5306 5304 5302 5301 5300 5299 5298 5297 5295 5294 5294 5292 5291 5290 5289 5287 5286 5285 5284 5284 5284 5284 5283 5282